Location: Banff
(51.1667°N, 115.5667°W)
Time: 06:49:40
(UTC+00:00)

S-56A Canister/Altair - Pass Details

Date: 02 December 2020
Orbit: 633 x 2499 km, 38.9° (Epoch: 21 January)

Event Time Altitude Azimuth Distance (km) Brightness Sun altitude
Rises 04:02:35 0° 248° (WSW) 5,566 12.5 -40.4°
Reaches altitude 10° 04:06:57 10° 242° (WSW) 4,287 11.7 -41.0°
Enters shadow 04:13:47 31° 213° (SSW) 2,487 10.1 -42.0°
Maximum altitude 04:16:33 37° 181° (S) 2,099 - -42.4°
Drops below altitude 10° 04:23:14 10° 117° (ESE) 2,972 - -43.4°
Sets 04:25:43 0° 109° (ESE) 3,715 - -43.8°
